Theta_e
337 336 336 337 338 339 341 341 341 341 341 342 341 340 341 340 340 341 341 341 341 341 341 341 342 342 341 341 340 339 339 338 338 338 338 337 337 337 337 336 336 336 336 336 335 335 335 335 334 334 334 334 334 333 332 332 331 332 333 333 333 333 333 333 333 333 331 329 330 329 329 329 329 329 329 329 329 330 330 330 329 329 329 328 329
336 335 335 336 337 337 339 340 341 341 342 342 341 342 342 341 341 342 342 341 342 342 342 342 341 341 340 339 339 338 337 337 337 337 337 337 336 336 335 335 335 335 335 335 335 335 334 334 334 333 333 333 333 332 332 332 331 331 331 332 333 333 334 333 333 332 330 329 329 329 329 329 329 329 329 328 328 329 329 330 329 329 329 329 329
337 336 335 335 335 336 338 339 340 340 341 342 342 342 342 342 343 343 342 342 342 342 341 342 341 340 339 339 338 336 336 336 336 336 336 335 335 334 334 334 334 334 334 334 334 334 333 334 334 334 333 333 332 332 332 331 331 331 331 332 332 333 333 333 333 332 331 330 330 330 330 330 330 328 329 329 329 329 329 329 330 330 330 330 330
339 337 336 335 335 336 337 338 340 340 341 342 342 342 342 343 343 342 342 341 341 341 340 341 340 340 339 338 336 335 336 336 336 335 334 333 333 333 333 333 333 333 333 333 332 332 333 333 333 334 333 333 332 332 332 331 332 332 332 332 332 333 333 333 333 333 332 331 330 330 329 330 331 330 328 329 329 329 329 329 329 330 330 331 330
339 338 336 336 334 334 335 337 339 339 339 340 341 341 341 342 342 341 341 341 340 340 340 340 339 338 337 336 336 336 337 336 335 334 333 333 333 332 332 332 332 332 331 330 331 331 332 332 332 332 333 333 333 332 332 332 331 331 332 332 333 334 333 333 333 332 333 332 330 330 329 331 333 330 328 329 329 328 329 329 329 330 330 331 331
337 337 337 336 334 332 333 334 337 337 337 338 340 340 340 341 341 341 340 340 340 339 339 339 337 337 337 336 337 337 337 335 334 333 333 332 332 332 331 331 331 330 330 330 330 330 329 329 329 329 330 330 331 331 331 331 330 330 330 331 332 333 333 333 332 332 333 333 331 331 331 331 331 329 330 331 330 328 329 329 330 330 330 331 330
337 337 337 335 333 332 332 332 334 335 335 336 338 339 339 340 340 339 339 339 339 338 338 337 337 337 337 337 336 335 335 335 334 333 332 332 331 331 331 330 330 329 330 330 329 328 328 327 327 327 328 328 328 329 328 328 328 328 328 328 330 331 332 333 332 332 333 332 332 331 331 331 329 328 329 332 332 330 329 329 330 330 330 330 330
337 338 336 335 333 332 331 331 332 332 333 334 335 336 338 339 339 338 338 338 337 337 337 338 338 337 336 335 335 333 333 333 332 332 332 331 331 330 330 330 330 329 329 329 328 328 327 327 327 327 328 328 328 328 327 326 326 327 326 327 327 328 330 332 332 332 332 331 332 332 332 331 329 327 327 328 331 332 330 329 329 330 330 330 330
337 338 336 335 333 332 331 331 331 332 332 333 334 335 337 338 338 338 338 338 337 337 337 337 336 335 335 333 333 333 332 332 332 331 331 331 330 329 329 329 329 329 328 328 327 327 327 327 327 327 327 327 327 327 327 326 326 326 326 327 327 327 328 330 331 331 331 331 332 332 332 330 330 327 326 327 329 330 331 331 330 330 330 330 330
337 337 335 334 333 332 331 331 331 331 331 332 333 335 336 337 337 337 336 336 336 336 335 335 334 334 333 332 332 332 332 331 331 331 330 330 329 329 329 329 329 328 327 327 327 327 327 327 327 327 327 326 326 326 326 325 325 325 326 327 328 329 329 329 329 329 329 329 329 331 331 330 329 328 326 327 328 328 330 330 329 329 330 330 330
339 337 335 334 333 332 331 330 330 330 331 332 332 333 335 335 335 334 333 333 333 333 334 333 333 332 331 331 331 330 331 330 330 330 330 330 329 329 329 328 328 328 327 327 327 327 327 327 327 326 326 325 325 325 326 326 325 325 326 328 329 329 329 329 328 328 329 329 328 329 330 330 329 329 328 329 329 329 329 329 329 329 329 329 329
340 338 334 332 331 331 331 330 330 330 331 330 330 331 332 333 333 332 331 331 331 331 331 331 330 330 330 330 330 329 329 329 329 329 329 330 329 328 328 327 327 326 326 326 325 326 327 326 326 325 325 325 325 326 327 327 327 326 327 328 328 329 328 328 328 329 329 328 328 328 329 329 329 329 329 328 329 329 329 329 329 329 329 330 329
338 337 333 331 331 331 330 329 329 329 329 329 329 329 329 330 330 330 328 328 329 329 329 329 329 328 328 328 328 328 327 328 328 329 328 328 327 327 326 325 325 324 324 324 324 324 325 325 325 324 324 325 326 327 328 328 328 328 327 328 328 328 328 327 327 327 327 327 328 328 328 328 328 328 328 328 328 329 329 329 328 328 329 329 329
336 334 332 331 331 331 329 328 328 327 328 328 328 327 328 327 327 327 326 327 327 327 327 327 327 326 326 326 326 326 327 327 327 327 327 326 326 325 325 324 325 324 323 323 323 323 323 324 323 323 324 325 326 327 328 328 328 328 328 328 328 328 328 328 328 327 327 327 328 329 329 329 329 328 328 328 328 328 328 328 328 328 328 329 329
334 333 332 331 330 329 329 328 327 327 327 327 327 327 327 326 326 326 325 325 325 325 326 326 325 325 325 324 325 326 327 327 327 326 325 325 324 324 324 324 325 325 323 322 323 323 323 323 323 324 325 325 326 326 326 327 327 328 328 328 328 328 327 328 328 328 328 328 329 329 329 329 329 329 328 328 329 328 328 328 328 329 330 330 330
333 332 330 329 329 328 327 326 326 326 326 326 326 326 326 326 325 325 325 324 325 325 324 324 324 324 324 324 325 326 326 326 326 325 325 324 323 323 323 324 324 323 323 322 322 323 323 323 324 324 325 325 325 326 326 326 327 327 327 327 327 327 327 327 327 327 328 328 328 328 329 329 328 329 329 329 329 329 329 328 328 329 330 331 331
332 330 329 328 327 327 326 325 325 325 325 325 324 325 325 325 325 325 324 324 323 323 323 323 323 323 324 325 325 324 325 325 325 325 324 324 322 321 323 324 323 322 322 321 322 323 323 324 324 324 325 325 326 326 325 326 326 326 327 326 327 327 327 327 327 327 327 327 328 328 328 329 329 329 329 329 329 329 329 328 328 328 328 330 331
329 328 328 327 326 325 325 324 324 324 324 324 324 324 324 324 324 323 323 323 323 322 323 323 323 323 324 324 324 324 324 324 324 324 323 322 321 320 321 322 323 322 321 321 322 323 323 324 324 324 324 325 326 326 326 326 326 326 327 326 326 326 326 327 327 326 326 326 327 327 328 328 329 329 329 329 328 329 329 328 328 328 328 328 330
328 327 326 326 325 324 324 324 323 324 324 323 324 323 323 323 322 322 322 322 322 322 323 323 322 323 323 323 323 323 323 322 322 322 322 321 320 319 320 322 322 321 321 321 322 323 323 323 323 323 324 324 325 326 325 325 325 325 326 326 326 326 326 326 326 325 326 326 326 327 328 328 328 328 328 329 328 328 329 329 329 328 328 328 328
327 326 325 324 324 324 323 323 323 323 323 324 324 323 322 321 322 322 322 322 322 322 322 322 322 322 321 321 321 321 321 320 320 320 320 319 319 320 321 320 320 320 321 321 322 322 322 322 322 323 323 324 324 325 325 324 323 324 326 327 326 326 325 326 326 325 325 326 326 326 327 327 327 328 328 328 328 328 328 329 329 328 328 328 328
326 325 324 323 323 323 322 322 322 323 324 323 322 321 321 321 321 322 322 321 321 320 320 320 320 320 319 320 319 319 319 319 319 319 319 318 319 320 320 319 319 320 320 320 320 320 321 322 322 322 322 322 323 324 324 324 323 324 326 327 326 325 325 325 325 325 325 325 325 326 326 326 326 326 327 327 328 328 328 328 329 329 328 328 328
325 324 323 322 322 321 320 321 321 322 322 321 321 320 321 321 321 321 321 320 319 318 318 318 318 318 318 318 318 318 317 317 317 318 317 317 319 319 319 319 319 319 318 318 317 318 319 320 320 320 321 321 323 323 323 323 324 325 325 325 325 324 324 324 324 324 324 324 325 324 325 325 325 325 325 326 327 327 327 328 328 328 328 328 328
323 323 322 321 321 320 319 320 321 321 320 320 320 320 321 321 320 320 319 318 318 317 317 317 316 316 316 316 316 316 316 316 316 316 316 317 317 317 318 318 318 317 318 316 315 315 317 319 318 318 319 320 321 322 323 323 323 324 323 323 324 323 323 323 322 321 321 321 321 321 322 324 324 324 325 325 325 325 325 326 327 328 328 327 327
322 322 321 320 320 320 320 320 320 320 320 320 320 320 320 320 319 318 317 317 316 316 315 315 315 315 315 315 315 315 316 315 314 314 314 315 316 316 316 316 315 316 316 315 314 315 316 317 316 316 317 319 320 320 321 321 321 322 323 323 322 321 320 320 319 319 319 319 319 318 319 321 322 323 324 324 324 325 325 325 326 327 327 327 326
322 322 321 320 320 319 319 320 319 319 319 319 319 319 319 318 317 316 316 315 315 315 314 314 314 314 314 314 314 314 314 313 312 312 312 313 315 315 314 314 314 314 314 314 314 314 315 315 314 315 316 317 318 318 318 318 319 320 321 321 320 317 316 316 316 316 317 317 317 317 317 318 319 320 322 324 324 324 325 325 326 326 326 326 326
321 321 321 320 319 319 319 318 318 318 318 317 317 317 317 316 316 315 315 314 314 314 313 313 313 313 312 312 311 311 311 311 311 311 312 313 313 313 313 313 313 313 313 313 313 313 313 313 314 315 316 316 317 317 317 317 316 317 317 317 317 315 313 314 314 315 315 315 316 317 316 316 316 316 318 322 324 325 325 325 325 325 325 325 325
320 320 320 319 319 319 317 317 317 316 316 316 316 315 315 315 315 314 314 313 313 313 312 311 311 311 310 309 309 309 309 310 310 311 312 312 313 312 312 311 311 311 311 312 312 312 313 313 314 315 316 316 316 317 316 316 315 315 315 314 314 314 313 314 314 314 315 314 313 315 315 315 315 315 316 319 322 323 324 324 324 325 325 325 324
321 320 319 319 319 318 316 316 316 315 315 315 315 315 315 315 314 314 314 313 312 312 311 310 310 309 308 308 308 308 308 309 309 310 312 312 312 311 310 310 310 310 311 312 312 312 313 313 314 314 315 315 315 315 315 315 314 314 314 312 310 311 313 313 312 313 314 313 312 313 313 314 314 314 315 317 318 320 321 322 323 323 324 324 324
321 320 319 319 318 316 316 316 315 314 315 314 314 315 314 314 314 313 313 312 312 311 310 309 308 308 307 307 307 308 308 309 310 311 311 311 311 310 310 309 310 311 312 312 312 312 313 313 313 313 313 314 314 313 312 313 312 312 312 310 309 310 311 311 310 310 311 312 313 313 313 313 314 314 314 315 316 317 317 318 319 321 322 323 324
321 320 320 319 317 315 315 315 314 314 314 314 314 314 314 314 313 313 312 311 311 310 309 308 308 307 307 307 307 307 308 309 310 310 310 309 309 309 309 310 310 310 311 311 311 311 311 310 311 311 311 311 310 309 309 311 311 310 310 309 309 310 311 310 309 309 309 311 312 312 313 314 315 315 314 314 315 315 315 315 316 317 319 320 321
320 319 319 317 316 315 315 315 314 313 313 313 313 313 313 313 312 312 311 311 310 309 308 307 307 306 307 307 307 307 307 308 308 308 308 308 308 308 308 308 308 309 308 308 309 308 308 308 308 308 308 307 306 306 307 309 309 309 308 306 307 308 309 309 308 307 308 310 310 311 312 313 314 314 314 313 313 313 313 314 314 314 315 316 317
319 318 317 316 315 315 315 314 313 313 312 312 313 313 313 312 312 311 311 310 309 308 307 306 305 305 306 306 305 306 306 306 306 307 307 307 307 307 307 307 306 306 306 306 307 307 306 306 306 306 305 305 304 305 306 307 308 308 307 305 304 304 304 305 305 305 306 308 308 309 310 312 312 313 314 313 312 312 311 311 312 312 312 313 314
319 318 316 316 316 315 315 314 313 312 312 312 312 313 312 311 311 311 310 309 308 307 307 306 305 304 304 303 304 305 305 305 305 306 306 306 307 306 306 305 305 304 305 305 305 305 304 304 304 304 304 303 303 304 305 306 306 306 306 305 303 302 302 302 302 302 303 303 305 307 309 310 311 312 313 313 312 311 310 310 310 310 310 310 311
318 317 316 315 316 315 314 313 312 312 312 312 312 312 311 311 310 310 309 308 307 306 306 305 304 303 302 302 303 303 303 303 304 304 305 305 305 304 304 303 303 304 304 303 303 303 302 302 302 302 302 302 302 302 303 304 303 303 303 303 302 301 300 300 300 301 302 302 302 303 305 307 309 310 311 311 312 311 309 309 309 308 308 308 308
317 316 315 315 314 314 313 312 312 312 311 311 311 311 310 310 309 310 309 307 306 305 305 304 303 303 302 302 302 302 302 302 302 303 304 304 303 303 302 302 302 302 302 301 301 301 301 301 301 301 301 301 301 301 302 302 302 301 301 301 300 300 300 299 299 299 300 300 301 301 302 303 305 307 308 309 310 310 310 308 308 307 307 307 306
315 314 314 314 313 312 312 311 311 311 311 310 310 310 309 308 309 308 307 306 305 304 303 303 303 302 302 302 301 301 301 301 302 303 303 302 302 301 301 301 301 301 301 300 300 300 300 300 300 300 300 300 300 301 301 301 301 301 301 300 300 300 299 299 299 299 299 299 299 300 300 301 302 304 305 307 308 309 309 307 306 305 306 306 306
313 313 314 313 313 312 311 311 310 310 310 310 309 309 309 308 307 306 304 305 305 303 302 303 302 302 302 301 301 302 301 302 302 303 302 301 301 300 300 300 300 300 300 300 300 299 299 299 299 300 300 300 300 300 300 300 301 300 300 300 300 300 300 299 299 299 299 298 298 298 298 299 300 301 302 304 305 306 305 305 304 304 304 305 304
312 313 313 312 312 311 310 310 310 309 309 309 308 309 308 306 304 304 303 304 303 301 301 302 301 301 301 301 301 302 302 302 302 302 301 300 300 300 300 300 300 300 299 299 299 299 299 299 299 299 299 299 299 299 300 300 300 300 300 300 300 300 300 299 299 299 299 298 298 298 298 298 298 298 299 301 302 302 302 302 302 302 303 303 303
312 312 312 311 311 310 310 310 309 308 308 308 308 308 307 304 302 303 303 302 301 300 301 300 300 300 300 300 301 302 302 302 301 300 300 300 300 300 299 299 299 299 299 299 299 299 299 299 299 299 299 300 300 300 300 300 300 300 300 300 300 300 299 299 299 299 299 298 298 298 297 297 297 297 298 298 299 300 300 300 301 301 301 301 301
312 311 311 310 310 310 309 309 308 307 306 307 307 307 305 302 301 303 302 301 300 300 300 300 300 300 299 299 300 301 301 300 300 299 299 299 299 299 299 299 299 299 299 299 299 300 300 300 299 299 299 300 300 300 300 300 300 299 299 299 299 299 299 299 299 299 299 298 298 298 297 297 298 297 297 297 297 298 299 299 300 300 300 300 300
311 310 310 309 309 309 309 308 307 306 305 306 307 305 303 301 301 302 301 300 300 301 301 301 300 300 299 299 299 300 299 299 299 299 299 299 299 299 299 299 299 299 299 299 299 299 299 299 299 299 299 299 300 300 300 299 299 299 299 299 299 299 298 298 298 298 298 298 298 298 298 298 298 298 297 297 297 297 298 299 299 299 299 299 300
310 309 309 309 308 308 307 306 305 305 304 306 306 303 301 301 301 300 299 300 301 301 301 301 300 300 299 298 298 299 299 298 298 298 298 298 298 298 298 298 298 298 298 299 299 298 298 298 298 298 298 298 299 299 299 299 298 298 298 298 298 298 298 298 298 298 298 298 298 298 298 298 297 297 297 297 297 297 297 298 299 299 299 299 299
309 308 308 308 306 306 305 305 304 303 304 305 304 301 300 300 299 298 299 300 300 300 300 300 300 300 299 298 298 298 298 298 298 297 297 297 296 297 297 298 298 298 298 298 298 297 297 297 297 297 297 297 298 298 298 298 297 297 297 297 297 297 297 297 297 297 297 297 297 298 298 297 297 297 297 297 297 297 297 298 298 299 298 298 298
308 308 307 307 306 305 304 303 302 302 303 303 302 301 299 299 298 298 299 300 300 300 300 299 300 300 299 298 298 298 297 297 297 297 297 296 296 296 297 298 298 298 298 297 297 297 297 296 296 296 296 296 296 297 297 296 296 296 296 296 296 296 296 296 296 296 296 296 297 297 297 297 296 297 297 297 297 297 297 298 298 298 298 298 298
307 307 306 306 305 304 302 301 301 301 302 302 301 301 300 298 297 298 299 300 299 300 299 299 299 299 299 298 297 297 297 297 297 297 296 296 296 297 297 298 298 298 297 297 297 297 296 296 296 295 295 295 295 295 295 295 295 294 294 294 295 295 295 295 295 295 295 296 296 296 296 296 296 296 297 297 297 296 297 297 297 298 298 298 298
306 306 305 305 304 303 301 301 301 301 300 300 300 300 299 298 297 298 299 299 300 300 299 299 299 299 298 298 297 297 297 296 296 296 296 296 297 297 297 298 298 297 297 297 296 296 295 295 295 295 294 294 294 294 294 294 293 293 292 292 293 293 294 294 294 295 295 295 295 295 295 295 295 296 296 296 296 296 296 296 297 297 297 297 297
306 305 305 304 303 301 301 301 300 300 299 298 297 298 297 297 297 298 299 299 299 299 298 298 298 298 298 297 297 297 296 296 296 296 296 297 297 297 297 297 297 296 296 295 295 295 295 294 294 294 294 294 294 294 294 293 293 292 291 291 292 292 293 293 294 294 294 294 294 294 294 295 295 295 295 295 295 296 296 296 296 296 297 297 297
305 305 304 303 302 301 301 300 300 299 297 296 296 296 296 296 297 298 298 298 298 297 297 297 297 297 297 297 297 296 296 296 296 296 296 297 297 297 297 297 296 296 295 295 295 295 294 295 295 294 294 294 294 294 294 293 293 292 291 291 291 292 293 293 293 294 294 294 294 294 294 294 294 294 294 294 294 295 295 295 295 296 296 296 296
304 303 303 302 301 301 300 300 299 298 296 296 296 296 296 296 296 296 297 296 295 295 295 296 296 296 296 296 296 296 296 295 295 296 296 296 296 297 297 296 296 296 295 295 295 295 295 295 295 295 294 294 294 294 294 293 293 293 292 291 292 292 292 293 293 293 294 294 294 294 294 293 293 293 293 293 293 293 293 294 294 294 295 295 296
304 303 302 302 301 301 300 299 298 297 296 296 296 295 295 295 295 295 295 294 294 294 294 294 295 295 295 296 296 296 295 295 295 295 295 295 295 296 296 296 296 296 296 295 295 295 295 295 294 294 294 294 294 294 294 294 293 293 292 291 292 292 292 292 293 293 293 293 293 293 293 293 293 292 292 292 293 293 293 293 293 293 293 294 295
303 302 301 301 301 300 300 299 297 297 296 296 296 295 295 295 294 295 295 294 294 294 294 294 294 294 295 295 296 296 295 294 294 294 294 294 295 295 295 295 295 295 295 295 295 294 294 294 294 293 293 293 293 293 293 293 293 292 291 290 291 292 292 292 292 293 293 293 293 293 293 293 293 293 292 292 293 293 293 293 292 292 292 292 293
Wind_Speed
9 11 12 13 14 15 17 16 16 16 14 14 14 12 12 12 11 10 9 9 10 8 6 5 5 4 4 4 4 3 2 2 2 2 3 4 4 5 6 6 7 7 8 9 10 10 11 12 13 13 12 13 13 14 14 13 13 13 14 15 16 17 17 17 15 15 14 12 13 16 18 18 17 18 20 20 21 22 25 27 28 29 29 29 29
8 9 9 11 11 12 14 14 15 15 14 15 15 14 13 12 10 10 9 9 9 8 6 6 5 3 2 2 1 1 2 2 1 2 2 3 5 6 6 7 7 8 8 9 9 9 10 11 12 12 12 12 13 14 15 15 15 15 14 15 15 16 17 16 14 12 11 10 9 9 12 15 17 18 19 20 22 23 26 27 27 28 29 29 30
6 7 8 9 10 11 13 13 14 15 13 14 15 14 13 12 10 10 9 8 8 7 6 5 3 3 2 2 1 1 1 1 2 4 5 5 6 7 8 8 9 9 9 9 9 10 11 12 13 14 14 13 13 14 15 16 16 17 16 16 16 16 17 16 15 13 12 13 10 6 4 6 10 14 17 21 23 24 25 25 26 27 29 30 31
6 6 7 8 9 10 11 13 14 14 14 13 13 12 12 12 11 10 9 8 8 7 6 5 5 4 4 3 1 1 2 4 4 6 7 6 7 8 9 9 9 9 10 10 10 11 12 14 15 16 16 16 15 14 15 16 17 17 17 18 18 17 17 16 16 16 16 13 6 3 2 2 4 7 12 20 24 24 23 25 27 29 29 30 32
7 6 6 8 8 8 10 13 13 14 14 14 14 13 13 13 12 11 10 9 9 8 7 7 6 5 4 3 2 1 3 5 6 6 7 8 9 10 10 10 10 10 11 11 11 11 12 13 14 15 16 16 16 16 16 18 18 17 17 18 19 19 19 18 17 17 19 18 12 6 2 2 2 2 6 13 19 24 24 24 27 29 30 30 32
6 7 7 7 8 8 9 11 13 13 13 13 14 14 13 13 13 11 10 9 9 8 8 7 6 4 3 3 3 4 4 6 7 8 10 11 11 11 11 11 12 12 12 12 12 13 13 14 15 15 16 15 15 16 18 19 19 18 17 18 19 20 21 20 20 19 19 23 23 18 13 11 5 2 3 4 9 17 22 23 25 28 29 30 31
6 7 7 7 8 8 7 9 10 11 11 12 13 13 12 12 12 11 10 10 9 8 7 7 6 5 5 5 5 4 5 6 7 8 9 10 11 12 12 13 14 14 15 15 15 16 17 17 17 17 16 15 15 15 17 18 19 19 18 18 19 20 21 20 22 22 19 21 25 25 25 24 18 11 6 2 2 7 15 20 23 25 27 28 30
6 8 7 7 8 8 7 8 8 9 10 10 11 12 11 11 11 11 11 10 9 8 7 6 5 4 4 5 5 6 6 6 7 7 8 10 11 13 14 15 15 16 17 18 18 19 20 20 20 19 17 16 15 15 17 18 18 19 19 19 19 20 21 21 23 22 19 20 23 25 25 26 26 22 16 10 4 3 6 12 18 23 26 27 28
7 8 8 8 9 10 10 10 9 9 9 10 11 12 12 13 14 13 13 11 10 8 7 6 5 5 5 5 7 7 7 7 7 8 10 11 13 15 16 17 17 17 18 19 19 20 20 21 20 19 19 18 18 17 18 19 18 19 18 19 19 19 21 22 22 21 20 20 20 20 23 25 24 22 21 18 11 7 5 5 10 17 20 26 29
8 8 9 9 10 12 13 14 12 10 10 11 13 15 16 17 16 15 14 12 10 9 8 9 7 6 6 7 7 8 8 8 9 10 11 13 15 16 16 17 18 18 19 19 19 20 20 19 19 19 20 20 19 18 19 19 18 18 17 18 20 21 23 23 23 22 22 22 21 19 20 21 16 12 16 19 14 10 8 5 7 11 12 19 28
8 8 10 11 12 14 15 16 15 13 13 14 16 17 18 18 17 17 16 14 12 11 10 10 8 6 7 8 9 10 10 11 11 12 12 14 15 15 16 17 17 19 19 19 19 19 19 18 19 20 21 20 20 20 20 20 19 18 18 20 21 22 22 23 23 22 21 22 22 23 21 18 14 12 15 18 13 9 7 5 8 14 14 17 23
8 8 9 10 11 13 14 15 17 17 16 17 17 18 19 19 18 18 17 14 13 11 9 9 7 7 8 8 9 9 9 10 10 11 12 13 14 15 17 17 17 18 19 19 19 20 19 19 20 21 21 21 20 20 20 19 19 18 18 20 20 21 21 21 20 19 19 20 20 21 23 23 22 19 16 17 17 16 12 6 8 13 13 15 19
8 7 7 7 8 10 12 14 16 18 18 18 17 18 19 19 18 18 17 13 11 10 9 8 7 7 8 8 8 8 8 8 8 9 10 11 12 13 15 16 17 18 19 20 21 20 19 19 20 20 20 19 18 18 19 19 18 17 17 18 18 19 20 19 19 19 18 18 19 22 23 24 25 23 20 19 20 21 16 9 10 13 11 11 15
8 7 7 6 7 10 11 13 15 17 18 17 16 16 17 17 16 17 16 12 10 9 8 7 7 7 7 8 8 7 7 7 7 8 9 10 11 12 13 15 16 17 18 19 20 20 19 18 18 18 18 18 17 18 18 18 18 17 17 17 17 18 20 19 19 19 19 19 20 23 24 24 25 24 23 23 22 21 18 12 10 11 12 10 11
7 7 8 7 9 12 11 12 14 15 17 17 17 16 15 15 14 15 14 11 9 9 8 7 7 7 7 7 7 6 6 6 7 7 8 10 12 12 13 13 14 16 17 18 19 19 19 18 17 17 18 18 18 18 18 18 18 18 17 17 17 17 17 18 18 18 18 20 21 22 23 24 24 24 24 24 25 24 23 21 14 8 8 7 7
9 7 8 9 11 13 12 13 14 14 15 16 16 15 15 14 13 12 12 10 9 8 7 7 6 6 6 5 5 5 6 7 7 7 9 10 11 11 11 11 12 15 17 18 18 17 17 17 17 17 17 18 18 18 18 17 17 18 17 16 16 15 15 14 15 14 15 17 20 21 23 23 24 24 24 24 26 27 27 26 22 13 7 4 5
9 8 9 10 12 14 13 13 13 14 13 13 15 15 14 13 12 12 11 10 9 7 7 6 6 6 6 6 5 5 5 5 5 6 8 8 10 11 10 10 12 14 16 17 16 15 15 16 17 18 18 18 18 18 18 17 17 19 19 16 15 15 15 14 14 14 15 15 16 18 20 22 23 23 23 24 25 27 28 27 25 22 14 6 4
9 8 10 12 13 15 16 16 14 14 14 14 16 15 14 12 11 11 10 9 8 7 6 6 6 6 6 5 4 4 5 6 6 6 6 8 10 10 9 10 12 13 15 16 15 14 15 15 17 17 18 18 17 17 18 17 18 20 21 19 17 15 15 15 15 16 17 17 16 16 16 17 19 20 21 23 24 25 27 28 27 27 24 15 8
10 9 8 11 13 14 17 19 16 16 16 16 16 15 13 12 10 10 9 8 7 6 6 6 6 7 7 6 5 5 5 6 6 6 6 8 9 8 8 10 12 13 14 14 14 14 15 16 16 16 17 17 16 17 18 18 18 19 20 21 21 18 16 15 16 16 18 19 19 18 17 16 17 18 19 21 22 23 25 27 28 29 29 26 19
9 9 8 10 14 14 15 17 16 16 17 16 15 13 12 10 8 8 7 6 6 5 5 5 5 6 6 6 5 4 4 4 4 3 6 6 6 6 8 11 12 13 13 12 13 13 14 15 16 16 17 17 17 17 19 20 20 20 20 21 23 22 19 18 18 18 19 19 19 19 19 18 17 16 16 18 20 22 25 26 26 26 27 28 26
9 10 9 12 16 15 16 17 17 17 18 17 15 13 12 10 8 8 7 7 7 7 6 6 5 5 4 3 2 3 3 3 2 4 4 4 4 7 9 11 12 11 12 13 13 14 14 15 17 18 19 19 19 19 20 21 22 21 21 21 23 23 22 22 21 20 22 21 19 19 19 18 17 16 16 17 16 17 21 25 26 25 24 25 25
9 9 9 13 16 15 16 19 20 20 20 18 16 15 14 11 9 9 8 8 6 5 4 4 3 4 4 4 3 2 2 2 2 3 3 4 7 9 9 10 10 10 12 14 15 16 16 17 19 20 21 20 20 19 19 21 22 22 22 22 22 23 23 23 22 22 23 23 21 20 19 19 18 17 16 17 17 15 15 16 20 22 22 22 22
10 8 8 14 17 16 16 18 20 20 19 18 17 16 14 11 10 10 9 8 6 4 3 3 4 4 5 5 4 3 4 4 5 6 7 9 10 10 10 10 10 10 11 14 16 18 18 19 21 22 22 21 20 19 19 21 22 22 22 22 21 22 23 23 23 23 23 23 22 22 22 20 18 17 17 18 18 16 15 14 13 16 18 19 20
10 8 8 13 16 15 15 17 18 18 18 18 19 17 15 13 12 11 10 9 8 7 7 7 7 8 8 7 7 7 8 9 10 10 11 11 11 11 11 11 12 12 12 14 18 19 19 22 23 25 25 23 21 20 20 22 22 21 20 20 20 21 21 22 22 23 24 24 23 24 26 24 20 19 19 19 19 17 15 13 11 13 15 16 17
10 9 8 10 12 12 14 15 17 17 17 18 19 18 17 15 13 12 12 10 9 9 8 8 9 9 9 9 9 10 10 11 12 12 12 12 11 11 13 14 14 15 15 17 20 21 23 25 26 28 28 26 24 22 22 22 21 20 19 18 19 20 21 23 23 23 24 24 24 25 26 27 25 23 22 21 20 19 16 12 9 9 11 13 15
11 10 9 9 10 11 14 16 17 17 18 19 19 18 18 16 15 14 13 11 10 9 9 10 10 11 11 12 12 12 12 13 13 13 12 12 12 13 15 16 16 17 19 20 22 24 26 27 28 29 29 29 28 26 25 25 24 23 23 23 23 24 25 26 26 25 24 24 24 25 25 26 27 28 26 23 20 19 17 15 11 9 8 11 14
10 10 9 9 9 11 14 17 18 18 19 19 19 19 19 18 16 15 13 12 11 11 11 12 12 12 13 14 14 13 14 14 14 14 13 13 14 15 16 17 18 19 20 21 24 26 27 28 29 29 30 30 30 29 29 29 29 28 29 30 30 30 30 31 30 29 26 25 24 25 25 26 26 28 30 27 23 20 17 15 13 11 9 9 12
10 10 10 10 9 9 13 18 19 20 20 19 19 19 19 18 17 15 13 12 12 12 12 13 13 14 15 15 15 14 14 14 14 14 14 15 16 16 17 18 19 20 21 22 25 26 26 28 29 29 29 29 30 31 30 30 30 30 31 32 32 32 32 33 34 33 31 30 29 27 27 27 25 26 29 28 26 23 18 15 13 12 10 8 8
11 10 10 10 9 9 13 18 20 21 21 20 19 19 19 18 17 15 13 13 13 13 13 14 15 15 15 15 14 15 15 15 15 15 16 17 18 18 19 20 21 22 22 23 25 26 27 28 28 29 29 29 30 31 30 29 30 31 32 33 33 33 34 33 33 34 35 35 35 33 32 30 27 27 29 29 28 25 23 21 18 14 11 8 7
11 11 10 10 9 11 15 18 20 21 22 20 20 20 19 19 17 16 14 14 14 14 14 15 15 15 15 15 15 16 16 16 17 18 19 20 20 21 22 23 23 24 24 25 26 27 28 28 29 29 29 29 30 29 28 28 29 30 31 32 33 36 36 35 35 34 34 35 37 36 35 32 30 30 31 31 30 29 28 27 25 23 19 14 11
12 12 10 10 10 13 16 18 18 19 21 21 20 20 20 19 18 16 15 14 14 15 15 15 15 16 15 15 16 17 18 19 20 21 21 22 22 23 24 25 25 26 26 26 27 28 29 29 29 29 29 29 29 27 27 28 29 30 31 31 34 36 37 37 37 36 35 36 37 37 36 35 33 31 31 31 31 31 32 32 31 30 29 26 23
12 12 11 11 11 13 16 18 18 19 20 21 21 20 20 19 18 16 15 15 15 16 16 16 17 17 17 17 18 19 20 21 22 22 23 23 23 24 25 26 26 27 27 27 28 29 29 29 29 30 30 29 28 26 26 28 29 30 31 32 35 37 38 39 38 38 38 37 38 37 36 37 35 31 29 29 29 30 31 33 34 35 35 34 32
13 12 12 12 13 16 19 21 21 21 22 22 21 21 20 19 19 17 15 16 17 16 17 17 18 18 18 18 20 21 22 22 22 23 23 23 24 25 26 27 27 27 28 29 30 31 31 31 31 31 31 29 28 27 27 28 30 31 33 34 36 37 39 40 40 39 39 38 39 39 38 38 36 33 31 29 27 28 30 32 34 36 38 38 37
11 11 11 13 16 19 21 22 23 23 23 23 22 21 20 19 19 18 17 17 18 17 18 19 18 18 17 18 20 22 23 23 23 24 24 25 26 27 27 27 28 29 30 31 32 33 33 34 33 33 32 31 29 28 27 29 31 32 33 35 37 37 38 39 40 40 40 39 39 40 39 38 37 36 35 31 28 28 30 33 35 36 38 39 39
9 10 11 15 19 21 21 22 24 24 23 23 24 22 20 20 19 18 18 18 18 18 19 19 18 18 18 18 20 22 23 23 24 25 26 27 27 28 28 28 29 30 31 32 33 34 34 35 34 34 35 33 31 28 28 29 31 32 33 35 36 37 38 39 39 40 41 40 39 39 39 39 38 37 35 33 31 30 31 33 35 36 36 37 38
11 14 17 21 25 26 25 24 24 25 24 23 24 23 21 19 18 18 19 19 20 20 19 19 19 18 18 19 20 22 23 24 25 26 27 28 28 28 28 29 30 32 32 32 33 34 34 34 35 35 36 35 33 31 30 30 31 32 34 35 36 37 38 38 39 39 40 41 40 40 39 39 38 38 36 34 33 32 33 35 34 34 35 35 34
15 20 23 27 29 29 29 27 26 26 25 24 24 23 21 19 18 18 19 20 21 20 19 19 19 18 18 18 19 21 23 24 25 26 27 27 27 28 28 29 31 32 33 33 34 34 34 34 35 35 35 35 34 33 32 32 32 33 34 35 36 36 37 37 37 37 38 40 40 41 40 39 39 38 36 35 35 34 35 36 35 35 36 36 34
21 23 24 26 29 30 29 29 28 26 25 25 24 23 21 19 18 19 21 21 21 20 20 20 20 19 18 18 19 21 23 24 25 26 27 27 27 28 28 29 31 32 33 33 33 33 33 33 33 33 33 33 32 32 31 31 32 32 34 35 35 36 36 36 36 36 37 38 38 38 39 39 39 38 37 36 36 36 36 36 34 34 36 37 35
24 28 29 27 29 29 28 29 28 26 26 26 24 23 22 20 19 21 22 22 22 21 21 21 20 19 19 19 20 22 24 25 26 27 27 27 27 28 28 29 30 31 31 31 31 32 32 32 32 31 31 32 31 30 30 31 31 31 32 33 34 35 36 35 35 35 36 36 36 37 37 37 38 38 38 38 37 37 37 35 33 33 33 32 31
22 27 31 31 31 30 29 28 27 26 26 27 26 25 23 20 20 22 23 22 22 22 21 21 20 19 19 20 21 23 24 26 26 26 27 27 27 27 28 28 29 29 30 30 31 32 32 31 31 31 31 31 30 30 29 30 31 31 31 31 33 34 34 33 33 34 35 35 35 35 35 35 36 37 37 38 38 38 38 37 35 34 31 28 28
27 29 32 31 30 30 28 26 26 26 26 26 27 26 23 21 22 23 22 22 22 21 21 20 20 19 19 20 22 23 25 25 26 26 26 26 26 26 26 27 28 28 30 31 31 31 31 31 30 30 30 30 29 29 29 29 30 30 30 30 31 32 31 30 32 33 33 34 34 33 33 33 34 36 36 37 37 36 37 37 36 34 30 28 29
28 30 31 29 27 27 27 25 25 26 26 26 27 26 24 23 23 23 22 22 22 21 21 21 21 20 20 21 22 23 24 25 25 25 25 26 25 25 25 26 27 29 30 30 30 30 30 30 29 29 29 28 28 27 27 27 28 28 28 28 29 28 27 29 31 32 32 32 31 31 31 31 32 35 35 36 36 36 36 35 34 33 33 33 33
25 25 28 31 28 26 26 25 24 25 25 26 28 26 24 24 23 22 22 22 22 22 22 22 22 21 21 21 22 23 24 24 24 24 25 25 25 24 25 26 27 29 30 29 28 28 28 28 28 28 27 27 26 26 26 26 26 27 27 27 26 26 26 27 30 31 30 30 29 29 29 30 31 33 34 35 36 36 36 34 33 33 35 36 36
25 24 27 32 31 27 25 23 23 24 25 26 28 27 25 24 23 22 23 23 23 23 23 23 23 22 21 22 22 23 23 23 23 23 24 25 25 25 26 26 27 28 28 27 26 26 27 28 27 26 26 25 25 25 25 25 25 25 25 25 25 25 25 26 28 29 28 28 28 28 28 29 31 32 33 34 35 36 35 34 33 34 35 36 37
26 27 29 31 31 30 28 24 22 24 25 25 27 28 27 25 24 24 24 25 24 24 23 23 23 22 22 22 23 23 23 23 23 23 24 24 25 25 26 26 26 26 27 26 25 25 26 27 26 26 25 25 24 24 24 24 24 24 23 23 23 23 23 24 25 26 25 25 25 26 26 28 29 31 32 33 34 35 34 33 33 34 34 35 35
27 27 29 30 29 28 29 26 23 24 25 25 25 27 28 27 26 25 25 25 24 24 23 23 23 23 23 23 24 24 24 23 23 23 23 24 24 25 25 25 25 25 25 25 25 25 25 26 25 25 25 24 24 24 24 24 24 24 24 23 22 22 22 23 24 24 24 24 25 25 26 27 28 30 31 33 33 33 33 33 33 33 33 34 34
29 29 31 31 28 26 27 28 26 25 25 25 24 25 27 28 27 26 25 24 24 24 24 24 24 24 24 24 25 25 24 24 24 24 24 24 23 24 24 24 24 24 25 25 25 24 24 24 24 23 23 23 24 24 23 24 24 25 25 24 23 23 22 22 23 24 25 26 27 27 28 28 29 30 31 32 32 32 32 33 32 32 32 31 31
29 32 33 31 29 28 28 28 27 26 26 26 26 26 27 27 27 26 26 25 25 25 25 25 25 25 25 25 25 26 26 26 25 24 24 23 22 23 24 23 22 22 23 24 24 23 22 21 21 21 21 21 21 21 22 22 22 23 24 24 24 24 24 23 23 24 25 28 29 30 31 32 33 34 34 34 33 33 32 31 31 30 29 29 29
28 31 33 32 30 30 30 28 27 27 27 27 27 27 27 28 28 27 27 27 27 27 27 26 26 26 26 26 27 27 28 27 27 26 25 24 23 22 22 22 21 20 20 21 21 21 20 19 19 18 18 18 19 19 19 19 19 20 22 23 23 23 23 24 24 24 27 30 32 33 34 34 35 36 36 36 36 35 34 33 32 30 29 27 27
28 28 29 30 31 31 31 29 28 29 30 29 29 29 29 29 30 29 29 30 30 29 28 27 26 27 27 28 28 28 28 27 27 27 26 25 23 21 21 21 20 19 18 18 19 19 18 17 17 17 17 17 17 16 15 14 15 18 20 21 21 21 22 23 23 25 28 31 32 33 33 34 34 35 35 35 35 36 35 35 34 33 32 30 28
27 27 26 27 28 29 31 30 30 30 31 31 30 30 30 31 31 31 31 31 31 31 29 27 27 28 28 29 30 29 28 28 27 26 25 25 23 22 21 20 19 18 18 18 18 18 18 17 17 18 18 17 15 13 12 12 14 16 19 21 20 20 20 21 22 25 29 30 30 30 31 31 32 32 32 32 33 33 34 34 34 35 35 34 31
Wind_Direction
113 118 123 128 136 145 156 163 165 164 164 170 173 173 174 176 177 176 181 191 196 200 200 201 213 226 243 262 269 272 292 314 336 342 339 341 342 343 345 344 340 340 338 335 337 336 333 330 325 322 317 310 304 301 301 297 293 291 288 285 282 281 280 280 286 282 269 261 267 269 265 263 263 261 258 252 244 239 238 240 239 235 231 229 233
108 110 115 122 130 141 152 157 158 157 157 166 170 169 173 175 171 166 168 181 188 193 195 199 209 219 238 259 277 282 284 299 329 360 7 16 12 8 10 9 5 6 3 357 354 348 343 338 332 327 319 311 307 306 306 302 296 292 287 282 278 275 273 275 279 273 253 239 240 250 254 253 252 251 250 248 244 241 240 240 240 238 233 230 232
109 106 109 115 122 134 146 150 153 155 155 164 170 169 172 173 171 170 168 176 181 183 185 184 187 192 203 218 269 289 309 357 31 48 44 35 30 28 25 20 16 13 12 8 3 356 348 342 337 332 326 319 311 307 308 306 301 297 291 284 279 274 269 266 263 254 246 244 241 240 237 237 245 242 242 245 243 242 241 239 240 239 237 235 234
117 113 113 117 120 125 138 146 151 155 152 158 166 167 169 170 170 168 164 166 167 162 161 164 171 178 186 200 209 187 59 48 52 56 46 37 34 30 24 19 17 15 11 7 359 353 345 339 336 331 329 325 316 306 307 310 305 301 295 287 280 273 265 261 259 251 245 242 232 236 226 204 245 230 230 242 240 238 239 237 239 239 238 239 236
122 120 122 123 119 116 130 145 152 154 152 157 164 165 167 167 163 160 157 157 157 157 159 164 168 169 180 183 157 82 46 37 33 29 20 19 19 19 17 12 12 11 5 359 351 344 339 334 331 326 324 322 317 311 308 311 310 306 300 290 280 271 267 266 264 254 245 241 234 233 232 221 261 190 210 246 242 235 236 234 236 238 238 238 236
121 122 131 126 117 116 126 144 152 152 154 159 163 163 162 159 155 155 157 158 159 160 157 154 148 133 131 125 85 45 37 31 19 10 7 10 10 7 7 5 4 1 356 352 348 344 340 335 330 324 320 316 314 312 310 310 309 306 303 296 286 280 274 267 266 264 251 242 238 238 244 245 247 152 168 261 251 237 236 233 233 236 237 237 234
128 127 131 120 116 118 120 136 145 147 153 158 159 159 156 152 150 150 151 151 150 148 141 132 123 103 87 85 76 55 48 35 18 13 10 8 3 354 355 358 357 353 350 349 347 344 341 338 335 331 326 321 316 311 310 308 304 301 299 296 292 291 284 268 265 268 253 243 241 240 245 248 243 231 214 234 268 239 235 233 234 235 235 235 233
139 135 129 116 119 123 120 126 133 140 148 152 151 148 148 146 142 140 137 135 134 135 130 117 106 96 90 90 81 65 51 37 23 14 6 2 356 348 347 347 347 347 345 344 342 341 340 338 336 334 331 328 324 317 312 309 305 302 300 298 294 292 290 278 270 269 259 251 246 237 240 248 245 237 230 233 249 253 232 229 234 236 235 235 235
142 140 129 124 129 133 132 129 126 130 135 138 137 132 132 133 132 132 128 126 128 128 121 108 97 94 94 84 68 56 40 27 14 360 355 353 348 343 340 339 340 340 339 338 339 340 339 338 338 337 335 333 329 321 312 308 305 303 303 302 297 293 291 286 278 275 274 270 260 242 237 244 246 238 229 231 236 240 234 214 224 230 231 234 235
147 138 131 137 142 143 140 131 124 123 122 126 130 128 128 129 129 124 118 119 119 116 110 100 93 87 76 60 45 32 15 3 352 347 347 345 342 341 340 339 338 336 335 338 340 341 341 342 342 341 340 338 334 328 321 317 312 307 306 304 301 296 289 284 280 279 283 283 282 273 252 238 235 229 222 223 225 230 236 230 212 209 217 228 229
150 136 137 144 144 143 139 131 127 127 127 127 129 131 130 128 126 119 114 114 111 107 102 93 85 69 54 38 23 11 1 355 350 350 350 347 344 342 340 340 338 337 339 342 344 345 346 346 347 348 348 346 342 337 332 329 324 318 314 309 306 301 290 283 280 279 282 285 286 285 276 260 247 238 222 215 214 216 226 238 218 209 216 225 225
142 134 140 142 139 141 141 134 131 133 133 130 129 130 128 127 126 119 112 109 105 101 97 88 75 56 40 21 10 3 358 357 357 1 358 351 345 341 341 343 344 346 349 352 352 351 352 354 355 355 353 348 343 341 337 334 329 323 318 314 312 311 301 291 284 280 281 285 286 286 287 283 275 265 245 227 225 224 222 233 225 213 220 232 229
135 131 137 144 144 144 143 137 134 133 133 131 128 125 123 123 123 117 108 104 103 98 91 80 59 40 23 8 4 3 1 360 1 7 3 354 351 351 354 357 357 356 357 360 358 354 358 1 356 353 351 347 343 343 343 341 335 325 317 313 314 317 313 303 291 283 284 287 289 287 283 280 279 275 266 254 244 235 228 233 231 216 216 231 230
129 130 138 151 148 142 142 139 135 132 131 131 128 123 119 117 115 111 105 104 102 91 79 62 41 25 12 2 0 1 1 4 7 8 3 0 4 8 9 10 9 4 360 0 358 355 357 358 352 351 355 354 349 347 347 349 346 339 331 327 325 323 320 314 304 296 294 294 289 283 278 275 276 277 270 260 249 239 233 234 232 218 215 217 216
127 133 136 139 135 134 136 136 134 133 131 131 127 123 118 112 108 106 103 101 92 79 65 50 38 27 12 4 10 17 21 26 25 18 17 17 15 13 13 16 17 12 5 1 360 359 357 357 358 360 360 357 354 352 350 349 349 348 345 342 340 336 328 319 312 308 303 300 292 284 279 275 273 272 266 257 248 243 239 235 228 216 211 209 204
134 137 130 125 125 126 129 129 129 130 130 128 127 125 122 116 110 105 102 94 81 69 58 52 45 29 18 24 41 43 41 38 34 33 33 33 29 20 15 20 18 10 6 4 1 1 359 1 7 5 1 357 355 354 350 347 351 354 351 348 347 347 344 333 323 317 311 305 299 291 283 277 276 273 264 257 250 245 242 235 225 217 212 208 213
131 136 129 124 124 122 118 116 119 124 124 123 123 124 123 120 116 110 101 89 78 68 65 65 50 38 45 53 44 27 31 37 37 40 31 25 29 18 6 16 18 7 6 5 1 2 3 6 8 7 5 3 0 359 355 353 360 2 360 356 351 349 350 351 347 338 331 321 312 303 292 283 282 279 269 263 258 250 245 238 226 221 218 210 219
115 122 127 128 129 127 121 116 116 120 122 122 122 120 116 112 108 103 94 86 81 75 75 67 48 53 68 64 44 42 65 63 45 35 16 5 11 2 353 16 23 12 10 8 2 5 8 8 9 8 7 8 8 6 1 2 9 9 8 7 1 356 355 358 358 352 351 349 340 332 319 302 294 289 281 273 265 255 248 241 232 226 221 218 222
117 119 124 124 127 131 127 123 122 124 126 124 120 114 107 101 94 91 89 88 86 77 73 64 61 80 87 84 81 75 62 37 14 10 9 5 4 360 9 28 26 16 14 11 7 11 12 12 13 10 8 13 17 11 5 8 13 13 13 13 10 8 5 4 7 3 360 358 355 352 345 333 321 308 296 284 270 258 249 242 236 229 222 220 223
129 128 125 121 123 128 127 125 128 132 131 125 118 111 104 100 94 92 93 92 88 84 83 82 87 95 89 75 61 42 23 2 347 5 14 8 8 22 35 35 26 18 16 16 15 18 21 21 19 15 16 21 21 16 10 11 14 16 18 17 14 17 17 14 14 11 7 2 360 359 354 349 345 331 314 299 281 264 254 246 239 230 221 219 221
127 130 132 125 124 130 132 132 135 135 130 125 121 119 116 114 110 107 106 102 98 95 95 98 101 96 90 76 43 22 17 14 41 49 23 7 35 49 49 39 28 23 25 26 27 30 32 30 27 26 27 27 25 21 19 20 22 23 26 24 20 21 22 20 17 12 9 8 6 4 0 356 353 346 337 324 306 283 264 252 242 234 226 221 219
126 134 136 125 125 133 136 136 137 134 128 125 125 124 121 120 118 119 118 113 108 100 90 95 97 87 85 83 64 37 19 21 71 79 64 64 65 60 52 41 33 33 38 38 37 38 38 36 34 32 31 31 30 28 28 30 32 32 32 29 26 25 23 22 19 13 9 8 7 4 2 359 357 355 351 341 332 320 301 276 250 232 225 222 219
127 129 127 122 127 135 133 132 132 128 124 125 127 126 124 124 128 131 128 124 128 137 130 128 125 104 94 87 75 80 97 102 104 100 89 78 71 63 54 46 44 46 49 49 45 41 40 41 39 35 33 32 33 34 36 38 37 36 33 29 28 28 27 25 22 17 13 11 8 5 1 358 356 358 358 352 344 335 327 318 281 242 229 226 223
125 123 121 121 125 130 129 128 125 122 124 128 128 129 130 133 136 135 131 127 127 127 123 118 113 105 100 101 103 108 112 106 96 89 85 80 75 69 61 57 56 55 55 55 51 45 44 44 41 38 36 34 36 39 42 41 37 34 33 29 28 27 26 26 24 21 20 20 16 10 6 5 1 358 358 358 356 347 338 333 306 265 246 234 229
127 127 125 123 126 132 131 125 121 122 125 127 129 133 136 135 136 134 130 125 122 122 120 115 112 109 107 109 111 110 107 101 93 87 83 80 75 71 68 66 65 61 58 57 56 51 49 48 46 43 39 37 38 40 40 39 35 33 33 32 30 29 28 29 29 26 24 25 23 16 12 12 11 7 4 0 357 354 348 341 319 283 257 241 236
133 134 135 137 137 134 125 118 119 124 127 128 130 132 132 132 132 131 129 125 123 124 120 116 115 114 112 111 109 106 102 97 93 88 82 78 75 75 75 72 68 65 61 59 59 57 54 52 49 47 44 42 42 42 40 39 38 38 40 40 39 41 40 38 36 34 29 26 24 21 17 16 16 15 14 8 359 353 349 346 337 319 285 252 240
138 143 146 143 133 125 119 119 122 125 127 130 131 130 130 131 129 128 127 126 124 121 116 113 113 112 111 109 105 102 99 95 92 87 82 80 80 80 81 76 70 67 64 61 61 60 58 56 52 50 49 47 46 46 45 44 43 43 45 44 45 46 47 45 42 39 36 30 23 21 21 20 20 20 21 18 9 1 355 350 342 333 317 277 245
149 149 146 137 127 125 127 126 126 127 128 129 129 130 131 130 129 129 130 128 125 122 116 112 110 109 106 104 102 101 98 94 91 88 85 84 82 80 80 78 73 71 68 66 65 63 62 61 57 55 52 48 47 46 45 46 45 45 47 47 46 46 47 47 43 40 40 37 31 27 26 25 26 26 26 25 22 17 13 7 354 339 326 305 269
150 144 141 137 134 137 135 130 128 129 129 130 130 132 132 130 130 132 131 129 126 120 114 109 106 103 101 101 102 101 98 95 93 91 88 86 83 81 81 79 77 75 73 71 69 66 65 63 61 59 56 52 51 49 48 48 48 48 49 49 47 47 46 44 42 39 39 39 38 35 32 32 35 38 37 35 33 31 29 26 19 8 353 334 315
148 146 147 143 139 139 134 130 130 131 131 133 133 133 132 131 130 130 127 126 123 115 108 105 101 98 100 103 103 100 98 97 95 93 90 88 85 83 82 79 78 76 74 72 70 68 65 63 62 61 60 58 57 55 54 55 55 55 54 52 52 52 50 46 44 39 36 37 38 37 34 34 38 43 43 41 42 44 43 40 37 33 28 19 5
153 153 150 140 136 135 132 129 131 133 134 136 135 134 133 131 129 127 125 125 121 112 106 103 101 101 105 105 103 102 100 98 96 94 92 90 88 85 83 80 78 75 74 72 71 68 65 63 61 61 60 58 56 56 57 59 60 59 58 56 55 54 53 49 47 43 39 38 38 36 34 34 35 39 41 41 42 46 49 50 50 48 45 42 36
158 155 144 137 138 136 134 132 131 134 136 137 138 136 134 132 129 129 130 127 119 110 105 101 98 100 104 104 104 103 100 98 96 95 93 91 89 87 83 81 78 75 73 72 70 68 65 63 61 60 59 58 56 56 58 59 60 60 60 58 56 54 52 50 47 45 42 41 39 37 35 35 33 33 36 39 39 40 44 49 51 52 52 51 48
159 152 142 141 144 140 138 137 137 140 142 142 143 139 135 135 134 134 134 126 117 111 107 102 98 97 98 99 102 102 99 98 96 96 95 93 90 87 83 81 78 76 75 73 70 69 66 63 62 60 60 59 58 58 59 60 60 61 61 60 57 55 53 50 48 46 44 42 41 39 38 37 35 32 33 36 38 39 40 44 46 48 49 49 50
149 142 139 141 140 136 137 139 141 144 144 144 144 140 137 137 136 136 135 126 118 113 108 104 102 100 100 101 103 102 100 98 97 97 95 92 89 86 84 82 81 79 77 74 71 69 68 65 64 62 61 60 59 60 61 63 63 62 62 61 60 57 55 52 50 48 46 44 43 41 39 38 37 37 35 35 37 40 42 43 45 46 45 46 47
137 132 135 137 135 132 133 137 140 142 143 142 141 139 138 138 137 137 135 127 120 114 109 107 106 105 106 107 105 104 102 100 99 97 95 92 90 87 85 83 81 79 77 75 73 71 69 67 65 64 62 60 58 59 61 63 64 63 62 62 60 58 57 54 52 50 49 47 45 44 43 40 39 40 41 40 39 40 43 45 45 45 47 47 46
143 140 141 140 139 138 138 139 139 141 143 141 139 140 139 137 138 138 134 127 121 116 111 110 110 109 111 111 108 107 104 102 100 98 95 92 90 88 86 84 84 82 79 77 75 73 71 69 67 65 64 61 58 57 59 61 62 62 62 61 60 59 57 55 53 52 50 49 47 46 46 44 42 42 43 44 44 44 45 46 44 43 45 48 47
141 141 142 142 142 140 140 141 140 141 143 142 140 141 140 137 138 136 132 127 122 117 115 115 114 114 115 114 112 110 107 104 103 99 96 94 92 91 88 87 86 84 80 78 76 74 72 70 68 66 64 62 59 57 57 58 59 60 61 60 59 59 57 55 53 52 52 51 49 47 46 45 44 43 42 44 46 47 47 46 44 42 42 42 41
133 131 132 135 137 138 141 142 141 141 144 144 143 142 141 139 138 135 130 126 121 118 118 118 116 116 117 117 116 113 109 107 104 101 99 98 96 93 91 89 88 85 82 80 78 76 73 70 68 66 64 62 60 57 55 55 56 57 59 59 59 58 56 55 53 52 52 51 50 49 47 46 45 44 43 43 45 47 47 45 43 43 43 40 36
134 134 133 133 136 137 139 141 141 143 147 147 146 144 142 141 139 133 128 123 121 121 121 120 117 117 118 118 117 115 112 109 106 104 103 101 98 96 94 92 90 87 85 82 79 77 74 70 68 66 63 61 59 56 54 53 52 52 54 56 57 57 55 53 52 51 52 51 50 49 47 46 46 44 44 44 45 47 47 46 44 43 42 39 36
130 133 133 135 137 138 139 142 145 148 149 148 147 145 142 141 138 132 127 124 124 125 124 123 121 118 119 119 118 116 114 112 110 107 105 104 101 100 98 95 93 90 87 83 80 77 74 71 68 65 63 61 59 57 56 53 51 50 50 52 55 55 53 52 51 51 51 50 50 48 47 46 45 45 45 45 45 47 48 47 46 45 42 38 38
135 136 135 136 138 139 140 144 148 150 150 149 148 144 141 140 136 130 128 128 129 129 129 127 125 122 120 119 119 118 116 113 112 111 109 106 104 102 100 98 95 92 88 85 82 79 76 73 69 66 64 62 60 59 57 53 51 49 49 51 53 54 53 52 53 53 52 50 49 48 47 46 46 45 45 44 45 46 47 48 48 47 45 43 43
134 137 136 134 133 135 139 144 150 152 151 151 148 142 138 137 133 129 131 132 133 133 133 132 129 125 122 121 120 119 118 116 115 114 111 107 105 103 102 100 97 94 91 88 84 81 78 75 71 67 65 63 61 60 57 54 52 50 50 51 53 53 53 53 55 54 53 52 50 49 49 48 48 47 46 45 45 45 46 47 48 47 47 46 46
133 136 138 135 131 134 139 145 151 152 150 151 147 140 136 135 132 132 135 137 137 137 136 134 131 127 124 124 123 122 120 119 118 116 112 108 107 106 104 103 100 97 94 90 86 82 80 77 73 69 66 64 62 60 58 56 54 53 53 53 54 55 54 54 56 56 54 53 52 51 51 50 48 48 47 46 45 45 45 46 46 46 46 45 46
137 139 140 136 134 136 138 143 150 150 150 153 149 140 136 135 135 138 142 141 140 140 138 134 132 130 127 127 126 125 123 121 119 117 114 111 110 110 107 105 102 99 95 90 86 84 82 79 75 72 69 66 64 62 59 57 56 54 55 55 55 56 54 54 55 55 53 52 51 51 51 49 47 47 47 47 47 46 45 46 46 46 45 44 43
140 142 141 138 138 140 140 142 147 149 150 153 151 145 142 141 142 146 147 144 142 141 138 134 133 133 131 131 130 127 124 122 120 118 116 114 113 112 109 106 102 99 95 92 89 86 84 81 78 75 72 69 67 65 61 58 55 52 52 53 53 54 53 53 54 54 53 52 50 49 49 48 47 46 46 47 47 46 45 45 45 44 43 42 41
141 141 140 139 140 140 140 140 144 149 151 153 154 152 148 147 149 151 149 147 145 141 137 135 135 135 135 134 132 128 125 123 121 119 116 115 114 112 109 106 103 100 97 95 93 91 87 84 80 77 75 72 68 66 62 57 53 51 50 51 52 54 55 54 55 56 55 54 53 51 51 50 48 47 47 47 47 46 45 45 44 43 42 41 40
144 143 141 141 142 141 141 142 145 150 153 153 154 152 149 149 152 152 150 149 147 142 138 136 136 136 137 136 133 129 126 123 120 119 117 115 114 113 110 107 105 103 101 98 95 92 89 86 83 79 75 71 66 64 61 56 52 50 50 51 53 56 56 55 56 58 58 58 58 56 55 54 52 50 49 48 46 45 44 44 43 43 42 41 41
146 145 144 145 147 146 146 146 147 150 152 152 150 148 148 149 150 151 151 149 144 141 138 136 136 137 137 136 134 130 126 122 119 117 116 115 114 113 111 109 107 104 101 99 95 91 88 87 85 80 75 70 66 63 60 56 51 49 50 52 56 58 57 58 61 63 64 63 62 59 57 54 52 51 49 47 45 45 45 45 43 42 41 41 42
147 148 148 149 149 149 148 147 148 149 150 148 146 146 148 149 148 149 150 145 140 138 136 135 137 137 136 135 134 131 127 122 119 117 115 113 112 111 110 109 107 104 100 96 93 91 88 85 84 81 75 71 68 66 63 59 54 51 52 55 58 61 62 63 65 67 66 63 59 56 53 50 49 48 47 45 45 44 44 45 43 40 39 39 39
148 149 150 150 150 149 148 146 147 149 148 147 146 146 147 147 146 147 146 141 137 135 134 134 136 137 136 136 134 130 127 123 121 119 116 113 112 109 106 105 104 103 100 95 91 90 87 84 83 82 77 71 69 67 64 61 57 55 56 58 62 64 65 65 66 65 64 61 58 54 51 49 47 46 44 43 42 41 41 42 42 40 39 37 37
148 148 147 148 148 148 147 146 148 149 149 147 146 147 147 146 146 146 144 140 138 135 133 133 135 136 137 137 134 131 128 125 123 121 119 116 113 110 106 104 103 103 102 98 94 90 87 84 83 82 80 76 73 71 68 65 61 59 59 60 62 64 64 63 63 63 62 59 56 54 51 48 46 45 43 42 41 40 39 39 39 40 39 38 36